FENGYUN 1C DEB, 47040

Orbit data source: Space-Track

FENGYUN 1C DEB, 47040 is space debris in SSO originally from a launch on Mon, 10 May 1999 UTC launched from the Taiyaun Space Center, China (TSC). Fengyun 1C debris stems from the Chinese weather satellite Fengyun-1C, which was intentionally destroyed by a Chinese anti-satellite missile in 2007. This event dramatically increased the amount of space debris, with thousands of trackable fragments posing hazards to satellites and human spaceflight. The Fengyun 1C debris cloud has become a focal point in discussions about space sustainability and the need for international regulations to prevent the creation of new debris.

Loading next visibility...
Identifier
47040, 1999-025FBS
Orbit
SSO
Country
Flag of CNCN / PRC
Related business
Manufacturer
Unknown
Mission
Spacecraft
Bus & Motor
Unknown
Mass
Unknown
Launch date (UTC)
1999-05-10 (26 years ago)
Launch vehicle
Unknown
Launch site
Taiyaun Space Center, China (TSC)
Object type
Payload
Rocket body
Debris
Shape & HBR
Unknown shape, 0.1 m
Radar Cross Section
Small (<0.1 m²)

Expand to show TLE details & history
Last TLE update: 1 week ago

TLE from 1 week ago
0 FENGYUN 1C DEB
1 47040U 99025FBS 25280.97073600  .00000962  00000-0  60512-3 0  9993
2 47040 100.2929 178.7942 0064659  48.0236 312.6411 14.06312684881843
Epoch: 2025-10-07T23:17Z
TLE epoch observation values (Epoch: 2025-10-07T23:17:51.590Z)
Latitude
-0.00002°
Longitude
172.47726°
Altitude
843.261 km
Speed
7.447 km/s
True Right ascension
11h 55m 10s
True Declination
0° 00' 00"
Sunlit
Object was in daylight at epoch
Visualization orbit readout
Latitude
Unknown
Longitude
Unknown
Altitude
Unknown
Speed
Unknown
Apparent Right ascension
Unknown
Apparent Declination
Unknown
Sunlit
N/A
Visualization observer readout
Local Sidereal Time
15:25:20
Azimuth
Unknown
Elevation
Unknown
Doppler factor
Unknown
Orbital elements
Apogee altitude
916.137 km
Perigee altitude
822.415 km
Semi-major axis
7,247.413 km
Eccentricity
0.00647
Inclination
100.2929°
RAAN
178.7942°
Arg. of periapsis
48.0236°
True anomaly
312.09307°
Mean anomaly
312.6411°
Eccentric anomaly
312.36738°
Mean motion
3.51778 °/min
Orbital period
102.34 mins
BSTAR
0.00060512
Loading maneuver chart data...
Computing Atmospheric mass density...

Documentation

Showing up to 5 results
|